Temp_Advection
nan nan nan nan nan nan nan nan nan nan nan nan nan nan nan nan nan nan nan nan nan nan nan nan nan nan nan nan nan nan nan nan nan nan nan nan nan nan nan nan nan nan nan nan nan nan nan nan nan
nan 0 0 -0 -0 -0 -0 0 -0 -0 -0 0 -0 -0 -0 -0 -0 0 -0 0 0 0 -0 -0 -0 -0 -0 -0 -0 0 0 0 -0 -0 0 -0 -0 -0 -0 -0 -0 -0 -0 -0 -0 0 0 -0 nan
nan -0 0 -0 0 0 -0 -0 -0 -1 -0 -0 -0 -0 -0 -0 -0 -0 0 -0 -0 0 0 0 0 0 0 -0 -0 -0 -0 -0 -0 -0 -0 -0 -0 -0 -0 -0 -0 -0 -0 0 0 -0 -0 -0 nan
nan 0 0 0 0 0 -0 -0 -0 -0 -0 -0 -0 -0 -0 -0 -1 -0 -0 0 0 0 0 0 0 0 0 -0 -0 -0 -0 -0 -0 -0 -0 -0 -0 -0 -0 -0 -0 0 0 -0 -0 -0 -0 -0 nan
nan 0 0 -0 -0 -0 0 0 -0 -0 -0 0 0 -0 0 0 -0 0 -1 0 0 0 0 0 0 0 -0 -0 0 0 0 0 0 0 0 -0 -0 0 -0 -0 -0 -0 -0 -0 -0 -0 -0 -0 nan
nan 0 0 0 0 0 -0 0 -0 -0 -0 -0 -0 -1 0 1 0 -0 -0 0 0 0 0 -0 -0 -0 -0 -0 0 0 0 0 -0 -0 0 0 -0 -0 -0 -0 -0 -0 -0 -0 -0 -0 -0 -0 nan
nan -0 0 0 0 0 -0 0 0 -0 0 0 -1 -0 -0 0 1 0 0 0 0 0 -0 -0 -0 -0 -0 0 0 0 0 0 0 -0 -0 -0 -0 0 -0 -0 -0 -0 -0 -0 -0 -0 -0 -0 nan
nan -0 -0 0 0 -0 0 0 0 -0 0 0 -0 -0 -0 -1 0 0 0 0 0 -0 -0 -0 -0 -0 0 0 -0 0 0 0 0 0 0 0 0 0 -0 -0 -0 -0 -0 -0 -0 -0 -0 -0 nan
nan -0 -0 -0 -0 -0 0 0 -0 -0 0 -0 0 -0 -0 -1 0 -0 0 -0 -0 -0 -0 -0 0 0 0 0 -0 -0 -0 -0 -0 0 -0 -0 0 0 -0 -0 -0 -0 -0 -0 -0 -0 -0 -0 nan
nan -0 -0 -0 -0 -1 0 -0 0 -0 -0 -0 0 0 0 -0 -0 -0 -0 -1 -1 -0 -0 0 0 0 0 0 0 0 0 0 -0 0 0 0 -0 -0 -0 -0 -0 -0 -0 -0 0 0 -0 -0 nan
nan 0 -0 -0 -0 -1 -1 0 0 -0 -0 -0 -0 -0 -0 -0 -0 -0 -1 -1 -0 -0 0 0 0 0 0 0 0 0 0 0 0 0 0 -0 -0 -0 -0 -0 -0 -0 -0 -0 0 0 -0 -0 nan
nan 0 0 -0 1 0 -0 -0 -0 0 0 0 -1 -1 -1 -0 -0 -1 -1 -0 0 0 0 0 0 0 0 0 0 0 0 0 0 0 0 -0 0 -0 -0 -0 -0 -0 -0 -0 0 0 0 -0 nan
nan 0 0 1 0 0 -0 0 -0 0 0 -0 -0 0 0 -0 -0 -0 0 0 0 0 0 0 -0 0 0 0 0 0 0 0 0 0 0 0 0 0 -0 -0 0 -0 -0 -0 0 0 0 0 nan
nan -0 0 0 0 0 -0 0 0 -0 0 0 1 1 1 0 0 0 0 0 0 0 0 0 0 0 0 0 0 0 0 -0 -0 0 0 0 0 0 0 -0 -0 -0 -0 -0 0 0 0 -0 nan
nan -0 -0 0 0 0 -0 -0 -0 1 1 1 1 1 0 0 0 0 0 0 0 0 0 0 0 0 0 0 0 0 -0 -0 -0 0 0 0 0 0 0 0 -0 0 0 0 0 0 -0 -0 nan
nan 0 0 -0 -0 0 0 -0 -1 1 1 1 0 0 0 0 0 0 0 0 0 0 0 0 1 1 0 0 -0 -0 -0 -0 0 -0 0 -0 -0 0 0 0 0 0 -0 0 -0 -0 -0 -0 nan
nan 0 0 -0 0 0 -0 -0 -0 0 0 0 0 0 0 -0 -0 -0 -0 -0 0 0 0 1 1 1 0 0 1 -0 -0 -0 -0 -0 -0 -0 -0 -0 0 0 -0 -0 -0 -0 -0 -0 -0 -0 nan
nan 0 0 0 -0 -0 -0 -0 -0 -0 0 0 1 1 0 0 0 -0 -0 -0 0 1 1 1 1 1 0 0 0 0 0 -0 0 -0 -0 -0 -0 -0 -0 -0 0 0 0 -0 -0 -0 -1 -1 nan
nan 0 0 -0 -0 -0 -0 -0 -0 -0 0 0 0 1 0 0 0 -0 -0 0 0 1 0 0 0 0 0 0 -0 0 -0 0 -0 -0 -0 -0 -0 -0 -0 -0 -0 -0 -0 -0 -0 -1 -1 -1 nan
nan 0 -0 -0 -0 -0 -0 -0 -0 -0 -0 0 0 1 1 0 0 0 0 -0 -0 -0 -0 -0 -0 -0 -0 -0 -0 -0 -0 -0 -0 -0 -0 -0 -1 -0 -0 -0 -0 -0 -0 -0 -0 -0 -1 -1 nan
nan 0 0 -0 -0 0 0 -0 -0 -0 -0 -0 0 0 1 0 0 0 0 0 0 0 -0 -0 -0 -0 -0 -0 -0 0 0 -0 -0 -0 -0 -0 -0 -0 -0 -0 -0 -0 -0 -0 -0 -0 -0 -1 nan
nan -0 0 0 0 -0 0 -0 0 -0 -0 -0 -0 0 0 0 -0 0 0 0 0 0 0 -0 -0 -0 -0 -0 0 0 0 0 -0 -0 -0 -0 -0 -0 -0 -0 -0 -0 -0 -0 -0 -0 -0 -0 nan
nan -0 -0 0 0 0 0 0 -0 -0 -0 -0 -0 -0 -0 -0 -0 0 0 -0 0 0 0 0 0 -0 0 0 0 0 0 0 -0 -0 -0 -0 -0 -0 -0 -0 -0 -0 -0 -0 -0 -0 -0 -0 nan
nan 0 -0 0 0 -0 -0 0 0 -0 -0 -0 -0 -0 -0 -0 0 0 0 0 0 0 0 0 0 0 0 0 0 0 0 -0 -0 -0 -0 -0 -0 -0 -0 -0 -0 -0 -0 -0 -0 -0 -0 -0 nan
nan -0 0 0 0 0 -0 -0 0 0 0 0 -0 -1 -0 -0 0 0 0 0 0 0 0 0 0 0 0 0 0 -0 -0 -0 -0 -0 -0 -0 -0 -0 0 -0 -0 -0 -0 0 -0 0 0 0 nan
nan 0 0 0 0 0 -0 -0 0 0 0 0 -0 -0 0 0 0 0 0 0 0 0 0 0 0 0 0 0 0 -0 -0 -0 -0 -0 -0 -0 -0 -0 -0 0 0 0 0 0 0 0 0 0 nan
nan 0 -0 -0 -0 -0 -0 -0 0 -0 -0 0 -0 0 0 0 0 0 0 0 0 0 0 0 0 0 0 -0 -0 -0 -0 -0 -0 -0 -0 -0 -0 -0 -0 0 0 0 0 -0 -0 0 0 0 nan
nan -0 0 -0 -0 -0 0 -0 0 0 -0 -0 -0 0 0 0 0 0 1 0 0 0 0 0 0 0 0 0 0 0 0 0 0 0 0 0 0 0 0 0 0 0 0 0 0 0 0 0 nan
nan -0 -0 0 0 0 -0 -0 0 -0 0 0 1 0 0 0 0 1 0 0 0 0 0 0 0 0 0 -0 0 0 0 0 0 -0 0 0 -0 -0 -0 0 0 0 0 0 0 1 0 -0 nan
nan nan nan nan nan nan nan nan nan nan nan nan nan nan nan nan nan nan nan nan nan nan nan nan nan nan nan nan nan nan nan nan nan nan nan nan nan nan nan nan nan nan nan nan nan nan nan nan nan
Wind_Speed
6 6 4 2 3 1 0 1 2 4 3 4 4 6 8 8 2 1 8 21 23 23 21 20 19 19 18 17 16 13 12 11 10 9 8 7 6 5 5 5 4 3 3 1 1 2 4 4 5
5 5 4 2 1 3 2 3 6 6 13 15 10 9 5 4 4 8 17 17 22 22 21 19 18 18 17 16 14 12 11 10 10 8 7 6 6 6 6 6 6 6 6 5 5 5 4 5 6
5 7 3 2 2 4 3 7 16 19 11 6 5 6 3 3 7 19 14 20 21 21 20 18 17 17 16 14 12 11 11 10 8 7 7 7 7 7 7 7 7 7 7 7 7 7 7 7 7
5 5 2 1 3 2 3 14 16 16 9 1 12 7 6 8 23 14 14 23 21 21 20 18 16 15 14 13 12 11 10 7 7 7 8 8 8 9 8 8 8 8 8 8 8 8 8 8 9
5 1 2 1 2 1 1 17 9 6 11 6 6 6 7 16 18 17 23 22 21 21 19 17 15 14 13 12 11 9 7 8 8 9 9 8 9 9 9 8 8 8 8 8 8 8 8 8 9
2 0 2 2 1 2 4 14 11 10 2 8 7 14 6 11 13 19 23 22 20 19 18 17 16 14 12 10 9 8 8 8 10 10 9 9 10 9 9 10 9 10 9 10 10 10 10 10 11
1 1 3 3 3 4 5 9 10 10 14 1 12 4 6 14 17 23 22 21 19 18 18 17 15 13 10 9 8 9 10 11 11 11 10 10 10 11 11 11 9 10 9 9 10 9 10 10 11
3 3 4 2 3 5 4 8 14 2 4 8 10 6 7 21 22 22 22 21 19 18 18 16 13 11 9 9 10 10 11 11 12 11 10 9 10 9 8 7 7 6 5 5 6 7 7 8 9
3 1 4 6 6 5 9 6 2 5 7 3 4 7 13 28 25 24 23 22 21 20 18 14 11 10 10 10 11 11 12 11 11 11 8 8 7 6 5 4 3 3 2 2 2 3 3 3 4
4 2 7 6 12 9 8 5 10 1 5 2 4 8 28 26 25 24 24 24 23 20 16 13 12 10 9 9 10 11 11 12 11 9 7 5 4 2 1 1 1 1 1 1 1 2 4 5 6
4 2 6 6 16 20 32 11 6 9 6 6 14 27 28 25 23 22 23 22 21 18 16 15 12 11 10 10 10 10 9 9 9 6 4 3 1 2 3 4 5 5 4 4 5 7 8 8 10
4 3 8 16 18 4 16 12 5 9 2 5 20 33 28 24 23 24 25 23 21 19 16 14 13 12 11 10 9 7 5 5 4 3 3 2 3 2 3 3 6 7 7 7 9 10 11 12 13
3 3 8 16 11 6 15 7 3 5 1 10 23 27 27 24 22 22 22 21 19 17 16 13 12 12 11 9 7 5 4 4 5 6 7 8 7 7 5 5 7 8 8 10 12 14 14 15 16
7 5 6 10 14 8 6 4 7 3 12 15 26 25 24 23 21 22 22 21 20 17 17 14 11 11 10 8 6 6 7 9 10 11 12 12 12 13 9 8 9 10 11 14 15 17 16 17 19
12 7 5 5 11 4 10 3 2 11 18 22 23 24 23 22 20 20 20 19 18 17 17 16 15 14 11 9 5 1 1 6 10 11 14 17 17 14 12 11 12 13 14 15 16 16 17 19 21
4 4 4 1 6 5 4 5 6 12 20 18 18 19 19 18 19 19 19 19 19 19 19 20 20 17 13 11 10 9 9 13 16 14 18 16 14 15 12 12 13 14 15 16 17 20 22 23 25
7 4 3 4 3 5 1 3 8 4 9 11 13 16 17 18 17 18 19 19 18 18 21 23 22 21 18 17 12 13 8 18 18 11 6 9 11 11 10 11 12 14 16 18 20 22 25 27 30
4 5 2 4 1 7 5 3 6 6 10 9 9 12 13 13 14 15 15 15 16 18 20 21 19 17 16 13 22 20 7 2 3 6 6 8 10 13 15 17 18 19 20 21 22 25 27 28 29
4 4 4 1 2 6 4 4 6 5 9 9 8 9 8 7 5 5 7 7 7 8 9 10 9 15 7 12 7 11 7 8 6 5 7 9 12 14 16 17 19 21 23 25 26 27 27 26 28
3 6 3 3 4 4 3 6 6 7 4 5 10 10 10 12 11 8 7 7 7 5 6 4 3 6 9 9 10 10 8 4 3 9 13 16 19 18 17 18 19 22 23 24 25 25 26 26 26
5 5 3 4 4 7 3 2 2 6 8 9 10 14 16 17 19 18 14 11 19 22 20 17 15 14 12 10 7 6 4 3 8 12 15 16 18 16 16 19 20 22 23 23 24 25 26 24 23
4 1 4 5 2 2 3 2 2 3 5 8 12 13 15 17 15 13 20 21 20 20 19 17 15 12 10 7 3 1 2 5 10 10 12 14 14 16 18 19 19 19 21 23 24 24 23 21 16
4 3 4 3 4 3 2 1 3 5 6 9 11 11 14 14 14 19 19 18 17 16 14 13 11 8 5 3 3 5 6 6 7 9 12 15 17 17 17 16 18 19 20 20 21 21 21 19 16
8 5 6 4 2 0 1 2 2 4 5 11 12 13 17 18 18 18 17 14 14 13 13 12 10 8 6 4 4 5 5 5 8 12 15 16 16 14 15 17 18 18 20 21 21 20 18 17 15
4 4 2 0 1 3 0 3 4 3 6 18 21 20 21 19 19 19 18 15 13 13 12 9 8 5 3 3 5 6 6 10 14 15 15 16 15 17 19 20 19 20 20 20 20 20 19 18 16
2 3 4 4 3 1 2 4 2 3 6 10 18 22 22 21 20 17 15 13 12 10 10 9 6 5 4 4 5 6 10 12 14 17 16 16 19 19 21 21 22 21 20 21 22 22 20 16 16
3 2 2 6 1 1 1 3 4 1 2 12 20 19 21 20 17 14 13 14 12 11 10 7 6 4 3 4 7 10 10 13 15 16 16 18 21 21 21 22 23 22 21 23 24 23 18 17 17
1 7 3 2 4 3 2 4 4 3 6 9 16 20 15 14 13 14 13 13 13 11 9 7 3 3 5 8 10 8 12 15 18 20 20 21 22 23 23 23 23 23 22 22 23 22 17 18 16
2 2 5 4 1 3 1 3 3 7 9 15 18 12 12 12 11 11 12 13 12 9 7 3 3 5 8 10 10 12 17 20 20 21 22 22 23 22 22 22 24 24 24 23 24 19 16 14 16
1 3 4 3 4 1 1 4 1 4 9 9 9 11 13 12 14 14 14 12 9 6 3 2 6 7 11 9 12 15 16 20 23 21 19 21 25 24 24 23 23 25 24 22 25 15 11 13 16
Wind_Direction
221 242 217 212 211 44 78 119 75 114 82 78 101 120 103 71 89 22 158 155 160 160 160 157 157 159 162 160 160 158 155 150 146 144 137 130 125 127 118 107 97 82 68 76 28 356 336 334 338
230 220 198 165 245 153 177 258 129 132 126 110 80 90 71 82 61 127 144 152 160 162 160 157 159 163 164 163 162 156 153 155 158 147 130 120 114 110 97 88 81 78 84 89 71 52 27 15 5
199 192 191 130 167 182 140 121 117 125 143 141 126 73 89 101 112 138 150 157 161 159 156 154 158 163 162 160 159 158 162 161 147 127 120 119 115 106 102 96 90 85 79 72 66 58 48 42 32
173 184 72 202 225 181 79 140 129 130 92 268 130 82 77 86 143 156 163 159 160 156 152 149 153 157 159 161 164 163 162 149 135 126 123 118 110 106 98 94 90 83 78 73 66 57 50 43 37
188 205 105 73 307 300 102 152 141 116 116 155 252 137 95 150 163 180 168 163 166 156 151 151 155 160 164 165 165 161 155 146 137 131 128 121 114 107 101 93 86 80 72 67 62 56 46 41 36
171 93 111 163 344 356 87 137 107 85 257 182 107 118 139 167 163 166 161 165 163 158 155 155 158 162 167 166 165 156 153 143 135 129 125 121 114 107 104 97 87 86 84 74 63 64 63 54 41
122 122 116 118 66 86 104 120 120 133 228 332 121 92 136 160 163 166 166 162 162 161 158 156 157 167 168 165 160 156 149 143 136 131 130 125 123 118 109 98 89 89 85 73 80 69 65 52 46
203 126 113 66 86 53 111 119 136 87 185 140 138 174 161 168 157 161 161 162 162 159 156 157 162 169 168 161 154 151 142 139 136 133 133 131 123 115 104 99 89 92 92 85 85 72 66 62 54
204 150 131 152 117 108 101 92 72 134 136 124 150 156 168 152 157 162 163 163 162 159 159 159 162 171 166 160 153 146 141 142 139 138 132 130 126 112 103 104 94 90 103 97 95 87 68 46 29
210 150 176 181 145 142 11 264 180 170 177 134 159 149 151 157 164 167 166 163 161 162 162 164 170 167 160 155 144 144 145 146 144 144 123 129 125 105 72 39 330 352 352 289 280 292 309 315 325
205 157 158 197 180 177 189 157 158 150 219 207 183 152 160 165 167 169 166 165 160 165 172 174 165 153 149 139 140 139 139 152 155 159 131 107 91 20 322 307 316 310 317 300 303 303 305 307 314
207 184 153 156 213 174 146 144 145 170 277 231 167 157 164 169 171 170 170 168 172 177 177 174 166 155 155 149 146 150 144 154 176 200 241 293 292 320 335 319 297 297 304 306 307 303 302 305 309
192 155 197 210 176 105 143 140 153 170 121 153 158 166 172 172 173 175 176 177 181 179 180 181 174 173 175 171 167 186 206 230 255 270 278 274 284 269 288 302 304 299 298 303 303 297 294 298 303
177 127 162 193 163 151 113 108 153 151 154 163 169 172 176 176 177 182 189 193 194 191 192 189 189 191 194 190 197 221 243 264 272 266 273 277 275 268 275 292 295 289 289 292 291 286 289 296 296
125 97 85 82 135 160 143 51 282 172 167 167 173 178 183 185 191 199 204 210 213 210 208 205 206 204 207 208 218 215 278 321 300 289 287 282 277 279 290 287 283 275 280 284 283 288 294 295 294
89 70 117 61 158 139 163 153 3 167 169 164 168 178 188 192 203 213 221 222 226 228 226 222 216 208 200 173 144 5 284 289 280 279 272 286 295 303 299 288 283 283 291 291 293 294 294 297 299
27 141 108 127 31 127 95 130 356 158 161 143 156 180 194 205 215 226 237 242 243 240 240 238 230 219 204 194 191 12 288 287 306 323 337 330 324 322 314 306 303 303 300 300 299 301 304 306 306
179 124 96 147 113 44 93 66 10 42 138 124 138 162 183 202 222 237 248 256 252 243 236 235 231 212 193 187 278 256 282 189 50 38 8 342 327 320 315 310 306 305 308 311 312 311 312 312 310
138 110 138 92 38 92 81 87 31 78 103 121 136 163 178 199 229 241 261 258 252 230 233 242 238 293 273 273 158 135 154 114 81 39 10 351 339 327 322 322 320 318 316 316 317 318 319 321 323
106 119 83 86 8 101 148 73 64 65 83 143 148 144 145 131 126 123 113 89 81 110 133 165 107 133 122 132 125 141 145 116 4 344 344 339 337 332 328 320 315 314 314 316 319 323 326 326 326
57 107 135 123 98 69 127 101 41 60 91 113 127 139 135 132 127 122 116 108 109 105 103 104 105 107 114 126 141 143 150 341 341 333 327 324 319 316 314 314 315 318 321 324 326 328 328 326 323
89 28 104 115 127 145 320 242 271 141 129 137 144 151 148 148 144 132 124 118 113 109 110 115 117 120 128 135 146 211 288 293 314 309 306 314 308 313 313 315 318 323 325 327 328 328 325 321 316
124 110 90 104 94 142 51 248 128 164 180 171 169 172 171 167 155 141 133 134 137 135 133 130 130 142 148 171 223 266 285 291 306 308 317 316 313 313 314 321 326 325 324 325 326 327 328 328 324
153 83 55 55 62 18 54 222 232 198 199 183 190 189 179 168 157 153 154 155 157 163 166 163 166 172 197 218 259 289 308 326 335 325 321 316 313 314 320 326 326 327 328 326 322 319 319 319 319
77 69 21 34 180 224 127 196 274 232 204 184 185 185 180 174 172 174 180 180 179 185 193 187 192 205 239 288 308 320 323 330 326 328 326 322 313 316 323 325 323 321 314 310 312 311 308 307 303
96 158 163 203 199 213 211 229 178 261 237 200 184 178 180 186 189 192 197 196 197 212 200 204 216 242 270 292 305 316 325 324 325 330 328 325 330 321 319 318 309 300 302 312 312 304 304 300 300
159 125 132 108 37 289 264 260 255 55 107 176 182 185 191 193 196 199 208 211 214 213 205 216 229 239 282 309 328 330 331 328 325 326 324 321 321 317 309 307 304 301 306 315 313 299 295 294 298
135 138 130 42 152 232 263 279 254 228 185 177 184 196 193 196 203 209 216 207 203 196 194 189 195 278 299 307 308 308 314 317 319 317 315 303 300 302 302 306 303 299 294 307 309 292 288 292 293
141 125 67 103 122 169 255 249 216 252 201 190 195 196 188 190 190 184 174 170 169 169 172 190 254 298 312 323 312 307 312 318 318 313 310 307 311 312 306 305 300 296 292 297 296 275 285 285 297
170 148 139 132 185 84 143 268 301 285 224 194 177 183 185 187 170 159 156 159 165 175 202 291 326 322 318 314 314 316 319 316 315 317 314 316 317 316 311 302 292 291 287 295 288 272 270 291 298
Height
1525 1525 1526 1526 1530 1524 1529 1527 1524 1530 1532 1533 1535 1533 1537 1541 1542 1546 1545 1549 1553 1558 1561 1564 1565 1568 1571 1573 1575 1575 1576 1577 1579 1580 1580 1581 1580 1581 1581 1580 1581 1581 1580 1580 1579 1578 1577 1577 1576
1523 1524 1525 1524 1528 1529 1527 1527 1525 1530 1532 1535 1535 1537 1538 1543 1543 1546 1548 1551 1555 1558 1561 1565 1567 1570 1572 1574 1576 1576 1578 1578 1580 1580 1581 1581 1581 1581 1581 1581 1580 1581 1581 1580 1579 1578 1579 1578 1577
1522 1523 1525 1523 1529 1524 1525 1524 1524 1530 1533 1535 1537 1539 1541 1544 1546 1548 1551 1553 1556 1559 1562 1565 1568 1571 1573 1575 1576 1576 1578 1579 1580 1580 1580 1581 1581 1582 1580 1580 1580 1581 1581 1580 1579 1579 1579 1578 1578
1522 1525 1527 1524 1527 1525 1522 1524 1526 1529 1535 1535 1533 1538 1543 1543 1547 1551 1553 1555 1557 1559 1563 1566 1569 1572 1574 1576 1576 1577 1578 1578 1579 1579 1580 1581 1582 1582 1581 1581 1581 1581 1581 1580 1580 1579 1578 1578 1577
1523 1523 1524 1527 1527 1523 1522 1524 1527 1528 1531 1535 1538 1538 1543 1546 1545 1548 1551 1555 1558 1560 1563 1567 1570 1573 1575 1576 1577 1577 1578 1578 1579 1580 1581 1582 1583 1582 1581 1583 1582 1582 1581 1581 1580 1579 1579 1578 1577
1523 1523 1526 1528 1526 1523 1524 1526 1527 1530 1532 1537 1534 1535 1546 1546 1547 1550 1554 1556 1559 1562 1564 1568 1571 1574 1576 1576 1578 1578 1579 1579 1580 1581 1583 1583 1583 1583 1584 1584 1584 1583 1582 1581 1582 1582 1579 1578 1577
1522 1523 1528 1527 1526 1523 1525 1526 1527 1532 1530 1534 1529 1538 1543 1545 1547 1550 1554 1557 1560 1563 1566 1569 1572 1575 1576 1576 1578 1578 1579 1579 1580 1581 1583 1582 1583 1584 1583 1584 1586 1583 1583 1583 1580 1582 1580 1580 1578
1521 1522 1526 1528 1528 1530 1527 1526 1528 1531 1534 1533 1533 1537 1542 1543 1547 1551 1553 1557 1560 1563 1566 1570 1572 1575 1576 1577 1577 1579 1579 1581 1581 1582 1583 1583 1583 1584 1585 1586 1585 1585 1584 1585 1582 1583 1582 1580 1579
1520 1521 1527 1525 1525 1530 1529 1528 1531 1533 1535 1534 1535 1535 1537 1542 1548 1551 1554 1557 1560 1563 1567 1570 1573 1575 1576 1576 1577 1579 1580 1582 1584 1584 1585 1584 1585 1585 1585 1585 1586 1585 1585 1584 1584 1582 1582 1580 1579
1520 1516 1520 1518 1521 1529 1530 1531 1529 1533 1534 1534 1534 1535 1539 1544 1547 1550 1554 1556 1560 1564 1568 1570 1572 1574 1576 1578 1578 1580 1581 1582 1583 1585 1584 1585 1585 1585 1585 1585 1585 1584 1584 1584 1583 1582 1581 1580 1579
1515 1514 1517 1517 1517 1516 1522 1530 1530 1531 1532 1531 1533 1534 1540 1544 1548 1552 1556 1558 1561 1565 1568 1571 1574 1575 1578 1579 1580 1581 1583 1584 1584 1586 1585 1585 1586 1585 1586 1585 1584 1583 1582 1583 1582 1581 1580 1579 1578
1515 1512 1515 1517 1517 1519 1519 1526 1529 1529 1531 1530 1532 1534 1540 1545 1549 1552 1555 1559 1562 1564 1568 1571 1573 1575 1578 1579 1581 1582 1584 1585 1586 1585 1586 1585 1586 1584 1584 1583 1582 1582 1581 1581 1581 1580 1579 1577 1576
1510 1510 1514 1515 1518 1518 1520 1523 1527 1530 1531 1532 1534 1538 1541 1546 1551 1555 1559 1562 1563 1566 1569 1573 1573 1576 1578 1579 1581 1583 1584 1584 1585 1585 1586 1585 1585 1584 1581 1580 1580 1580 1579 1579 1577 1577 1576 1574 1573
1506 1508 1512 1514 1518 1520 1522 1526 1528 1532 1532 1535 1537 1541 1545 1549 1553 1556 1558 1561 1563 1568 1571 1572 1573 1576 1578 1579 1581 1582 1583 1583 1583 1583 1584 1584 1582 1582 1580 1578 1578 1577 1576 1576 1575 1574 1573 1572 1569
1508 1513 1514 1517 1518 1522 1524 1530 1531 1532 1534 1536 1540 1543 1547 1550 1554 1558 1560 1562 1566 1568 1569 1570 1572 1575 1577 1580 1581 1580 1581 1580 1580 1580 1581 1580 1580 1579 1578 1577 1576 1575 1573 1573 1571 1571 1569 1566 1565
1510 1514 1519 1519 1520 1524 1525 1534 1535 1534 1533 1537 1541 1545 1549 1552 1554 1556 1559 1560 1564 1566 1567 1569 1570 1572 1575 1576 1577 1578 1578 1577 1575 1578 1578 1579 1578 1577 1576 1576 1575 1573 1571 1569 1569 1567 1564 1561 1559
1515 1522 1520 1521 1519 1521 1525 1533 1538 1537 1539 1541 1543 1545 1548 1551 1553 1555 1557 1559 1561 1563 1565 1566 1567 1568 1571 1574 1573 1572 1573 1576 1577 1577 1577 1576 1576 1575 1575 1573 1572 1570 1568 1567 1565 1562 1559 1556 1553
1521 1521 1522 1522 1522 1523 1528 1537 1538 1538 1539 1542 1544 1546 1548 1550 1552 1553 1555 1556 1558 1560 1561 1564 1566 1566 1570 1569 1570 1575 1577 1577 1577 1577 1577 1576 1575 1575 1573 1571 1569 1567 1565 1562 1560 1558 1555 1551 1547
1513 1517 1520 1523 1524 1529 1536 1539 1542 1541 1541 1543 1545 1547 1547 1550 1552 1554 1553 1554 1555 1556 1559 1562 1566 1565 1567 1571 1576 1573 1578 1577 1576 1577 1576 1576 1575 1573 1571 1568 1566 1564 1561 1558 1556 1553 1549 1546 1542
1514 1519 1524 1525 1525 1525 1536 1541 1542 1542 1543 1544 1546 1547 1549 1551 1553 1553 1553 1555 1556 1557 1559 1562 1562 1565 1566 1572 1573 1574 1576 1576 1576 1575 1573 1572 1571 1568 1567 1566 1563 1561 1558 1556 1552 1549 1545 1541 1537
1519 1521 1524 1524 1527 1529 1532 1536 1539 1543 1544 1546 1547 1549 1551 1552 1553 1554 1555 1556 1558 1559 1561 1563 1566 1567 1569 1572 1574 1574 1574 1574 1573 1573 1572 1570 1569 1565 1564 1562 1559 1556 1554 1551 1548 1544 1540 1537 1535
1522 1521 1521 1524 1526 1531 1534 1535 1538 1542 1546 1548 1549 1550 1551 1553 1554 1555 1556 1557 1560 1562 1563 1564 1565 1567 1569 1571 1573 1573 1571 1571 1571 1571 1569 1566 1565 1561 1560 1557 1554 1552 1549 1547 1544 1540 1537 1534 1531
1522 1522 1523 1528 1529 1531 1535 1533 1535 1544 1546 1547 1548 1550 1552 1553 1554 1555 1556 1559 1560 1562 1563 1564 1565 1569 1570 1569 1570 1570 1569 1568 1567 1567 1564 1563 1561 1558 1556 1553 1551 1548 1545 1542 1539 1536 1533 1530 1528
1520 1522 1527 1531 1533 1539 1539 1538 1529 1538 1537 1543 1546 1549 1550 1551 1553 1555 1557 1559 1560 1561 1563 1563 1564 1565 1568 1568 1567 1566 1566 1565 1563 1563 1562 1560 1558 1555 1552 1550 1547 1544 1540 1537 1534 1532 1529 1527 1525
1519 1525 1540 1543 1544 1542 1543 1545 1528 1533 1535 1535 1539 1544 1547 1549 1551 1553 1555 1557 1560 1562 1563 1563 1564 1564 1565 1564 1564 1563 1563 1562 1560 1560 1559 1557 1554 1551 1548 1545 1542 1539 1536 1533 1530 1528 1525 1523 1521
1525 1525 1537 1546 1546 1541 1543 1537 1527 1532 1533 1534 1538 1541 1544 1547 1550 1552 1555 1557 1559 1561 1561 1562 1562 1562 1562 1562 1561 1560 1559 1558 1558 1557 1555 1553 1550 1547 1544 1541 1537 1535 1532 1529 1526 1523 1521 1518 1517
1526 1530 1532 1545 1557 1550 1540 1534 1528 1530 1531 1533 1536 1540 1542 1545 1548 1552 1554 1555 1557 1558 1559 1560 1560 1561 1560 1560 1559 1558 1557 1556 1555 1553 1551 1548 1545 1542 1539 1535 1533 1530 1527 1524 1521 1519 1516 1514 1512
1518 1527 1533 1539 1551 1547 1540 1538 1525 1529 1529 1533 1535 1537 1541 1544 1547 1549 1550 1552 1554 1556 1557 1558 1558 1559 1559 1557 1556 1555 1554 1553 1551 1548 1546 1543 1540 1536 1533 1530 1527 1524 1522 1519 1517 1514 1512 1510 1509
1524 1527 1535 1537 1545 1544 1548 1530 1527 1525 1526 1528 1532 1536 1539 1541 1544 1546 1548 1551 1553 1554 1555 1555 1556 1556 1556 1554 1553 1553 1551 1549 1546 1544 1541 1537 1534 1531 1527 1525 1521 1518 1515 1513 1511 1508 1506 1506 1505
1519 1522 1526 1535 1542 1553 1548 1530 1527 1526 1526 1529 1532 1534 1537 1539 1542 1545 1548 1550 1551 1551 1553 1553 1554 1553 1552 1552 1551 1549 1547 1545 1542 1539 1536 1533 1529 1526 1522 1518 1514 1512 1509 1507 1504 1501 1502 1501 1500